Change the Weather History Date:

Thursday, November 28, 2013

  Actual Average (KJFX) Record (KJFX)
Temperature  
Mean Temperature 29 °F -  
Max Temperature 43 °F 61 °F 82 °F (1990)
Min Temperature 15 °F 38 °F 20 °F (1974)
Degree Days  
Heating Degree Days 36    
Moisture  
Dew Point 16 °F    
Average Humidity 67    
Maximum Humidity 92    
Minimum Humidity 26    
Precipitation  
Precipitation 0.00 in - - ()
Sea Level Pressure  
Sea Level Pressure 30.47 in    
Wind  
Wind Speed 2 mph (ENE)    
Max Wind Speed 5 mph    
Max Gust Speed -    
Visibility 10 miles    
Events      
Averages and records for this station are not official NWS values.
T = Trace of Precipitation, MM = Missing Value Source: NWS Daily Summary

Daily Weather History Graph

Daily Weather History Graph

Search for Another Location

Airport or City:

Trip Planner

Search our weather history database for the weather conditions in past years. The results will help you decide how hot, cold, wet, or windy it might be!

Date:

Astronomy

Nov. 28, 2013 Rise Set
Actual Time 6:35 AM CST 4:40 PM CST
Civil Twilight 6:08 AM CST 5:08 PM CST
Nautical Twilight 5:37 AM CST 5:39 PM CST
Astronomical Twilight 5:07 AM CST 6:09 PM CST
Moon 1:49 AM CST 1:40 PM CST
Length of Visible Light 10h 59m
Length of Day
10h 05m
Waning Crescent, 22% of the Moon is Illuminated
Nov 28
Waning Crescent
Dec 2
New
Dec 9
First Quarter
Dec 17
Full
Dec 25
Last Quarter

Hourly Weather History & Observations

Time (CST) Temp. Windchill Dew Point Humidity Pressure Visibility Wind Dir Wind Speed Gust Speed Precip Events Conditions
12:56 AM 19.0 °F - 15.1 °F 85% 30.40 in 10.0 mi Calm Calm - N/A   Clear
1:56 AM 18.1 °F 11.3 °F 14.0 °F 84% 30.41 in 10.0 mi North 4.6 mph - N/A   Clear
2:56 AM 17.1 °F 11.7 °F 14.0 °F 88% 30.42 in 10.0 mi NE 3.5 mph - N/A   Clear
3:56 AM 16.2 °F - 13.1 °F 88% 30.43 in 10.0 mi Calm Calm - N/A   Clear
4:56 AM 16.2 °F - 13.1 °F 88% 30.45 in 10.0 mi Calm Calm - N/A   Clear
5:56 AM 15.1 °F - 13.1 °F 92% 30.47 in 10.0 mi Calm Calm - N/A   Clear
6:56 AM 15.1 °F 9.4 °F 13.1 °F 92% 30.48 in 10.0 mi NE 3.5 mph - N/A   Clear
7:56 AM 24.1 °F - 16.2 °F 72% 30.47 in 10.0 mi Calm Calm - N/A   Clear
8:56 AM 28.0 °F 24.2 °F 14.0 °F 56% 30.49 in 10.0 mi SE 3.5 mph - N/A   Clear
9:56 AM 31.1 °F 26.4 °F 14.0 °F 49% 30.49 in 10.0 mi SSE 4.6 mph - N/A   Clear
10:56 AM 34.9 °F 32.0 °F 14.0 °F 42% 30.49 in 10.0 mi Variable 3.5 mph - N/A   Clear
11:56 AM 39.9 °F 37.8 °F 11.1 °F 31% 30.47 in 10.0 mi West 3.5 mph - N/A   Clear
12:56 PM 41.0 °F 39.0 °F 10.0 °F 28% 30.45 in 10.0 mi Variable 3.5 mph - N/A   Clear
1:56 PM 43.0 °F 41.3 °F 12.0 °F 28% 30.44 in 10.0 mi Variable 3.5 mph - N/A   Clear
2:56 PM 43.9 °F 42.3 °F 11.1 °F 26% 30.44 in 10.0 mi NW 3.5 mph - N/A   Clear
3:56 PM 43.0 °F - 13.1 °F 30% 30.45 in 10.0 mi Calm Calm - N/A   Clear
4:56 PM 36.0 °F - 23.0 °F 59% 30.46 in 10.0 mi Calm Calm - N/A   Clear
5:56 PM 32.9 °F - 21.0 °F 62% 30.47 in 10.0 mi Calm Calm - N/A   Clear
6:56 PM 27.1 °F - 22.1 °F 81% 30.48 in 10.0 mi Calm Calm - N/A   Clear
7:56 PM 27.1 °F 23.2 °F 22.1 °F 81% 30.49 in 10.0 mi South 3.5 mph - N/A   Clear
8:56 PM 25.2 °F - 21.0 °F 84% 30.49 in 10.0 mi Calm Calm - N/A   Clear
9:56 PM 24.1 °F - 20.1 °F 85% 30.50 in 10.0 mi Calm Calm - N/A   Clear
10:56 PM 23.0 °F - 20.1 °F 89% 30.52 in 10.0 mi Calm Calm - N/A   Clear
11:56 PM 23.0 °F - 21.0 °F 92% 30.53 in 10.0 mi Calm Calm - N/A   Clear